Location: Hauppauge
(40.8260°N, 73.2030°W)
Time: 16:57:00
(UTC-04:00)

Daily predictions for brighter satellites

Satellite Brightness Start Highest point End
(mag) Time Altitude Azimuth Time Altitude Azimuth Time Altitude Azimuth
ATLAS 5 CENTAUR R/B 3.4 19:33:23 10° SE 19:35:41 14° ESE 19:38:02 10° ENE
Cosmos 1934 Rocket 4.0 19:30:43 10° S 19:36:44 60° E 19:42:42 10° NNE
Cosmos 405 4.2 19:35:02 10° SSW 19:38:27 48° WNW 19:41:53 10° N
Okean 3 Rocket 4.2 19:38:39 10° N 19:42:42 35° ENE 19:46:44 10° SE
Cosmos 1867 4.4 19:38:43 10° S 19:43:19 29° ESE 19:47:58 10° NE
FengYun 1-2 T 4.3 19:37:54 10° SSE 19:43:21 60° ENE 19:48:54 10° N
ISS -1.6 19:43:52 10° SE 19:44:33 10° SE 19:45:15 10° ESE
H-2A R/B 3.2 19:43:56 10° SE 19:47:37 43° ENE 19:51:22 10° N
Spot 2 Rocket 3.8 19:43:22 10° SE 19:48:13 47° ENE 19:53:07 10° N
Tiangong 1 2.1 19:48:50 10° W 19:51:35 36° SSW 19:54:17 10° SE
Cosmos 1707 4.4 19:49:17 10° NNW 19:52:55 38° W 19:56:31 10° SSW
Abrixas 2.9 19:50:44 10° NW 19:53:29 44° NNE 19:55:43 14° E
Meteor 1-24 Rocket 3.8 19:48:38 10° N 19:54:10 88° W 19:59:53 10° S
Cosmos 2082 Rocket 3.0 19:49:17 10° N 19:54:24 33° ENE 19:59:16 11° ESE
Cosmos 1812 Rocket 3.9 19:50:52 10° SSW 19:55:16 73° W 19:59:40 10° N
Cosmos 1758 3.9 19:52:55 10° SSE 19:56:32 35° E 20:00:11 10° NNE
Cosmos 1076 Rocket 4.3 19:52:44 10° NNE 19:56:33 31° ENE 20:00:18 10° SE
Helios 1B rocket 3.5 19:53:34 10° NE 19:56:53 23° E 20:00:10 10° SSE
Lacrosse 5 2.2 19:51:59 10° SW 19:57:02 71° NW 20:02:07 10° NE
Cosmos 990 Rocket 4.4 19:51:57 10° SSW 19:57:10 70° WNW 20:02:25 10° NNE
FREGAT/IRIS 4.1 19:58:19 10° S 20:01:14 41° W 20:04:10 10° NNW
Cosmos 1953 2.7 20:00:42 10° SSE 20:04:30 40° E 20:08:19 10° NNE
Lacrosse 4 Rocket 3.8 20:01:14 10° WSW 20:04:34 24° NW 20:07:55 10° N
Envisat 4.0 20:02:47 12° ESE 20:06:26 26° ENE 20:10:37 10° N
GP-B 3.9 20:04:13 10° SE 20:08:07 31° E 20:12:02 10° NNE
USA 186 2.0 20:08:21 23° E 20:08:34 24° ENE 20:10:26 10° NNE
Helios 1A 3.6 20:06:44 11° SE 20:10:25 37° ENE 20:14:17 10° N
Cosmos 1939 Rocket 4.4 20:09:38 17° E 20:11:06 20° ENE 20:14:09 10° NNE
Cosmos 1766 Rocket 4.3 20:07:53 10° N 20:11:59 34° ENE 20:15:22 14° SE
CZ-3 Stage 3 4.3 19:17:49 10° WSW 20:13:22 57° S 20:20:19 17° ESE
Cosmos 1271 Rocket 3.9 20:10:32 10° SE 20:13:48 24° E 20:17:06 10° NE
Resurs 01 Rocket 1.6 20:09:46 10° SSE 20:14:10 89° ENE 20:18:37 10° NNW
Cosmos 1125 Rocket 3.5 20:09:24 10° S 20:14:28 57° ESE 20:19:35 10° NNE
Cosmos 1766 4.2 20:12:21 10° SSW 20:16:07 50° W 20:19:55 10° N
Cosmos 1048 Rocket 4.2 20:13:11 10° N 20:18:11 49° ENE 20:22:08 16° SE
Geosat 4.0 20:15:14 10° NNE 20:20:12 59° ESE 20:25:09 10° SSW
Cosmos 1605 Rocket 4.1 20:14:02 10° S 20:20:18 88° W 20:26:42 10° N
Cosmos 2100 Rocket 4.4 20:16:36 10° SSE 20:22:25 41° E 20:28:18 10° NNE
Cosmos-2242 3.5 20:18:40 10° SSE 20:22:31 35° E 20:26:24 10° NNE
ERS-1 Rocket 4.3 20:23:22 19° E 20:24:44 22° ENE 20:28:29 10° NNE
Lacrosse 5 rocket 2.6 20:22:01 10° NNW 20:25:18 24° NNE 20:26:41 20° ENE
Fregat R/B Cluster 11 4.3 20:20:28 10° SSW 20:27:14 74° ESE 20:30:39 10° NE
SeaSat 1 3.3 20:23:45 10° S 20:28:31 50° WSW 20:33:19 10° NW
Cosmos 1674 2.9 20:26:29 10° N 20:30:10 47° E 20:31:54 27° SE
SAR-Lupe-4 3.4 20:31:34 19° SSE 20:34:04 76° ENE 20:37:39 10° N
YAOGAN 6 4.4 20:36:25 17° NE 20:36:25 17° NE 20:38:15 10° NNE
Cosmos 2344 4.5 20:35:14 10° WSW 20:42:42 53° NW 20:51:18 10° NNE
CZ-2D R/B 4.0 20:39:10 10° S 20:42:57 54° W 20:46:47 10° NNW
Cosmos 1743 Rocket 4.2 20:39:25 10° N 20:43:30 35° ENE 20:43:50 34° E
Cosmos 1802 Rocket 4.2 20:37:46 10° SSE 20:43:33 46° E 20:49:24 10° NNE
Meteor 1-21 Rocket 4.3 20:38:30 10° N 20:44:22 89° WSW 20:50:17 10° S
BREEZE-M DEB (TANK) 4.0 20:42:38 10° NNW 20:44:28 19° NNE 20:44:40 19° NNE
Meteor 1-29 2.8 20:42:35 10° NNE 20:46:03 69° ESE 20:48:18 20° S
CZ-3B DEB 3.9 20:37:33 10° WSW 20:47:12 42° NW 20:51:52 10° NE
Cosmos 1818 3.9 20:45:40 10° NW 20:51:04 65° WSW 20:54:41 21° SSE
GPS 2-05 Rocket1 4.1 20:48:37 10° SW 20:51:23 29° S 20:51:23 29° S
COSMOS 2487 2.5 20:48:45 10° NNW 20:52:20 80° WSW 20:53:15 47° S
SAR-Lupe-1 4.2 20:51:15 29° S 20:52:57 71° W 20:56:32 10° NNW
Cosmos 2251 Rocket 4.3 20:48:18 10° N 20:53:04 32° ENE 20:53:40 31° ENE
Cosmos 2061 Rocket 4.0 20:50:42 10° S 20:57:00 66° E 21:03:22 10° NNE
Cosmos 1269 Rocket 4.2 20:51:59 10° NNW 20:57:16 73° WSW 21:00:49 21° S
Meteor 1-4 Rocket 4.2 20:56:25 10° SW 20:59:35 33° WNW 21:02:47 10° N
Timation 2 Rocket 3.8 20:56:04 10° NNW 21:02:25 89° ENE 21:05:26 32° SSE
Cosmos 1833 Rocket 2.7 20:57:10 10° NNW 21:02:48 82° WSW 21:05:39 30° SSE
Cosmos 1470 2.8 21:00:38 13° SSW 21:04:05 78° W 21:08:05 10° N
Cosmos 1408 Rocket 4.0 21:00:27 10° NNW 21:04:53 63° W 21:07:46 21° S
Cosmos 2278 Rocket 4.3 21:03:38 10° WSW 21:08:28 28° NW 21:13:17 10° N
Cosmos 1340 Rocket 2.7 21:07:52 10° NNW 21:11:55 82° W 21:12:09 76° SSW
CZ-4B DEB 3.8 21:12:04 43° W 21:12:04 43° W 21:14:57 10° NNW
Cosmos 1733 3.6 21:10:59 24° SSW 21:13:08 61° W 21:17:00 10° N
Cosmos 1459 Rocket 4.0 21:07:41 10° S 21:13:58 85° W 21:20:12 10° N
USA 215 3.1 21:10:24 10° NE 21:16:57 76° SE 21:23:27 10° SW
Cosmos 1842 Rocket 4.2 21:18:20 42° NNE 21:18:20 42° NNE 21:21:23 10° NNE
ATLAS 5 CENTAUR R/B 2.0 21:14:55 10° SW 21:19:34 69° NW 21:24:40 10° NNE
Cosmos 2173 Rocket 4.0 21:13:35 10° S 21:19:45 78° W 21:26:02 10° N
ISS -1.6 21:17:18 10° SW 21:18:25 20° WSW 21:18:25 20° WSW
Cosmos 2151 4.3 21:20:49 10° N 21:23:14 30° NNE 21:23:14 30° NNE
Helios 1B rocket 4.5 21:28:37 10° N 21:32:09 28° WNW 21:35:40 10° SW
Meteor 1-11 4.1 21:31:11 10° N 21:36:36 74° ENE 21:36:36 74° ENE
Cosmos 494 Rocket 4.0 21:32:43 10° NNW 21:37:20 70° NNE 21:37:20 70° NNE
Cosmos 2082 Rocket 3.4 21:33:19 10° NW 21:38:28 36° WSW 21:41:10 23° SSW
Lacrosse 5 4.2 21:37:06 10° WNW 21:40:49 20° NNW 21:44:31 10° NNE
SPOT 5 3.5 21:45:02 51° NNE 21:45:02 51° NNE 21:49:15 10° N
Envisat 4.3 21:42:59 24° SW 21:45:16 36° W 21:49:57 10° NNW
Cosmos 1939 Rocket 4.4 21:45:32 32° WSW 21:45:49 33° W 21:49:35 10° NNW
Meteor 1-16 Rocket 4.4 21:44:16 45° SSW 21:46:08 76° W 21:52:05 10° N
USA 267 3.8 21:48:09 41° NE 21:49:07 43° NNE 21:55:14 10° NW
MetOp-A 4.3 21:50:03 69° N 21:50:03 69° N 21:54:44 10° NNW
ARGOS 3.7 21:51:33 47° NNE 21:51:33 47° NNE 21:55:31 10° N
H-2A R/B 3.5 21:52:51 28° NNE 21:52:51 28° NNE 21:55:45 10° N
Cosmos 2016 Rocket 4.4 21:47:02 19° SSW 21:51:34 61° W 21:57:40 10° N
Cosmos 1725 Rocket 4.0 21:59:08 71° SW 21:59:40 77° W 22:05:54 10° N
Terra 4.2 22:04:46 14° NNE 22:04:46 14° NNE 22:05:40 10° N
ERS-1 Rocket 3.8 22:03:22 45° W 22:03:22 45° W 22:08:01 10° NNW
Lacrosse 5 rocket 3.7 22:01:01 10° WNW 22:02:25 20° WNW 22:02:25 20° WNW
Tsikada Rocket 4.3 22:11:33 10° NNW 22:17:28 61° W 22:17:28 61° W
Cosmos 2369 Rocket 4.4 22:34:54 15° NNE 22:34:54 15° NNE 22:35:51 10° NNE
USA 215 4.4 22:53:42 10° NE 22:59:37 38° NNW 23:05:32 10° W
